STARLINK-5408, 54810

Orbit data source: Space-Track

STARLINK-5408, 54810 is a payload satellite owned by SpaceX/Seattle (US) in LEO that was launched on Sat, 17 Dec 2022 UTC via an FALCON 9 launch vehicle from the Air Force Eastern Test Range (AFETR). Payload-class satellites include a variety of spacecraft equipped with specific instruments for various scientific and technological missions. These include communications satellites like Starlink; space stations such as the ISS; scientific satellites like the Hubble; Earth observation satellites from companies like Planet Labs, Umbra, and HawkEye 360; GPS; miniature CubeSats for education and research; and military/defense satellites.

Loading next visibility...
Identifier
54810, 2022-175BE
Orbit
LEO
Country
Flag of USUS
Related business
Manufacturer
SpaceX/Seattle
Mission
Operational Commercial Communications
Bus & Motor
STARLINK, Unknown motor
Mass
305 kg wet, ~290 kg dry
Launch date (UTC)
2022-12-17 (4 years ago)
Launch vehicle
FALCON 9
Launch site
Air Force Eastern Test Range (AFETR)
Object type
Payload
Rocket body
Debris
Shape & HBR
Box + 1 Pan, 10.1 m
Radar Cross Section
13.562 m², Large (>1 m²)

Expand to show TLE details & history
Last TLE update: 3 days ago

TLE from 3 days ago
0 STARLINK-5408
1 54810U 22175BE  26170.70550899  .00000663  00000-0  59713-4 0  9998
2 54810  53.1610 285.8104 0001018  95.8537 264.2571 15.08836011195602
Epoch: 2026-06-19T16:55Z
TLE epoch observation values (Epoch: 2026-06-19T16:55:55.976Z)
Latitude
Longitude
123.89652°
Altitude
540.718 km
Speed
7.593 km/s
True Right ascension
19h 03m 14s
True Declination
0° 00' 00"
Sunlit
Object was in full shadow at epoch
Visualization orbit readout
Latitude
Unknown
Longitude
Unknown
Altitude
Unknown
Speed
Unknown
Apparent Right ascension
Unknown
Apparent Declination
Unknown
Sunlit
N/A
Visualization observer readout
Local Sidereal Time
21:24:16
Azimuth
Unknown
Elevation
Unknown
Doppler factor
Unknown
Orbital elements
Apogee altitude
540.714 km
Perigee altitude
539.305 km
Semi-major axis
6,918.147 km
Eccentricity
0.0001
Inclination
53.161°
RAAN
285.8104°
Arg. of periapsis
95.8537°
True anomaly
264.24549°
Mean anomaly
264.2571°
Eccentric anomaly
264.2513°
Mean motion
3.77189 °/min
Orbital period
95.44 mins
BSTAR
0.000059713
Loading maneuver chart data...
Computing Atmospheric mass density...
Loading historical data...
Loading historical data...
Loading historical data...
Loading historical data...
Loading historical data...
Loading historical data...
Loading historical data...

Documentation

Showing up to 5 results
|